Terug naar catalogus

DELTA 1 DEB

ActiefUNKNOWN
NORAD 15540·DEBRIS·🇺🇸 United States

Gelanceerd Jul 29, 1976 vanaf Vandenberg Space Force Base

Loading…

Volgende Passages (komende 24 uur)

TLE

VersSource: Space-Track

Epoch: Sep 14, 2026, 18:41 UTC

1 15540U 76077EU  26257.77879948 -.00000118  00000-0 -92807-3 0  9994
2 15540 102.7152 199.4367 0561583 252.9821 129.4588 11.68257855509516

Volg DELTA 1 DEB in realtime met AllMySat

Download on the App Store